IRIDIUM 33 DEB, 34071

Orbit data source: Space-Track

IRIDIUM 33 DEB, 34071 is space debris in LEO originally from a launch on Sun, 14 Sep 1997 UTC launched from the Tyuratam Missile And Space Complex (TTMTR). The debris from Iridium 33, an American commercial communications satellite, has been tracked extensively since its accidental collision with the defunct Russian satellite Cosmos 2251 in 2009. This event, occurring at high speed in low Earth orbit (LEO), generated thousands of pieces of space debris, significantly increasing the risk of further collisions. The Iridium 33 debris cloud has impacted space traffic management and orbital debris mitigation strategies, making it a subject of ongoing study in space situational awareness.

Loading next visibility...
Identifier
34071, 1997-051CE
Orbit
LEO
Country
Flag of USUS
Related business
Manufacturer
Unknown
Mission
Spacecraft
Bus & Motor
Unknown
Mass
Unknown
Launch date (UTC)
1997-09-14 (28 years ago)
Launch vehicle
Unknown
Launch site
Tyuratam Missile And Space Complex (TTMTR)
Object type
Payload
Rocket body
Debris
Shape & HBR
Unknown shape, 0.5 m
Radar Cross Section
Medium (>0.1 m² and <1 m²)

Expand to show TLE details & history
Last TLE update: 12 hours ago

TLE from 12 hours ago
0 IRIDIUM 33 DEB
1 34071U 97051CE  26062.14226779  .00002767  00000-0  71027-3 0  9993
2 34071  86.3503 342.8818 0006441 183.9305 176.1850 14.49962173894993
Epoch: 2026-03-03T03:24Z
TLE epoch observation values (Epoch: 2026-03-03T03:24:51.937Z)
Latitude
-0°
Longitude
130.73982°
Altitude
733.411 km
Speed
7.486 km/s
True Right ascension
22h 51m 31s
True Declination
0° 00' 00"
Sunlit
Object was in daylight at epoch
Visualization orbit readout
Latitude
Unknown
Longitude
Unknown
Altitude
Unknown
Speed
Unknown
Apparent Right ascension
Unknown
Apparent Declination
Unknown
Sunlit
N/A
Visualization observer readout
Local Sidereal Time
19:02:41
Azimuth
Unknown
Elevation
Unknown
Doppler factor
Unknown
Orbital elements
Apogee altitude
727.289 km
Perigee altitude
718.142 km
Semi-major axis
7,100.852 km
Eccentricity
0.00064
Inclination
86.3503°
RAAN
342.8818°
Arg. of periapsis
183.9305°
True anomaly
176.18991°
Mean anomaly
176.185°
Eccentric anomaly
176.18745°
Mean motion
3.62725 °/min
Orbital period
99.25 mins
BSTAR
0.00071027
Loading maneuver chart data...
Computing Atmospheric mass density...
Loading historical data...
Loading historical data...
Loading historical data...
Loading historical data...
Loading historical data...
Loading historical data...
Loading historical data...

Documentation

Showing up to 5 results
|